CW0570 Weather Reports


Display with metric or nautical units.
time (UTC)temp
F
wind
direction
speed
MPH
gust
MPH
rain 1hr
in
rain 24hr
in
rain mn
in
humidity
%
barometer
mb
20260831201539 70 319 6.0 15.0 0.00 0.01 0.00 69 1013.2
20260831200035 69 214 2.0 11.0 0.00 0.01 0.00 72 1013.3
20260831194536 68 198 3.0 9.0 0.00 0.01 0.00 72 1013.6
20260831193104 68 278 3.0 12.0 0.00 0.01 0.00 73 1013.6
20260831191534 67 254 5.0 12.0 0.00 0.01 0.00 72 1013.5
20260831190040 68 211 3.0 10.0 0.00 0.01 0.00 73 1013.5
20260831184533 68 267 4.0 10.0 0.00 0.01 0.00 71 1013.4
20260831183032 68 218 1.0 13.0 0.00 0.01 0.00 72 1013.2
20260831181544 67 245 2.0 3.0 0.00 0.01 0.00 71 1013.0
20260831180034 66 360 2.0 4.0 0.00 0.01 0.00 75 1013.1
20260831174523 64 306 1.0 4.0 0.00 0.01 0.00 79 1013.3
20260831173020 61 32 0.0 2.0 0.00 0.01 0.00 86 1013.3
20260831171515 58 32 0.0 2.0 0.00 0.01 0.00 92 1013.3
20260831170010 56 32 0.0 2.0 0.00 0.01 0.00 97 1013.4
20260831164505 54 32 0.0 0.0 0.00 0.01 0.00 98 1013.5
20260831163003 52 32 0.0 0.0 0.00 0.01 0.00 98 1013.4
20260831161504 50 32 0.0 0.0 0.00 0.01 0.00 98 1013.4
20260831160001 49 32 0.0 0.0 0.00 0.01 0.00 97 1013.6
20260831154612 48 32 0.0 0.0 0.00 0.01 0.00 97 1013.6
20260831153059 47 32 0.0 0.0 0.00 0.01 0.00 97 1013.7
20260831151558 46 32 0.0 0.0 0.00 0.01 0.00 97 1013.7
20260831150105 46 32 0.0 0.0 0.00 0.01 0.00 97 1013.7
20260831144601 46 32 0.0 0.0 0.00 0.01 0.00 96 1013.6
20260831143057 46 32 0.0 0.0 0.00 0.01 0.00 96 1013.4
20260831141556 46 32 0.0 0.0 0.00 0.01 0.00 96 1013.3
20260831140056 46 32 0.0 0.0 0.00 0.01 0.00 96 1013.1
20260831134604 46 32 0.0 0.0 0.00 0.01 0.00 96 1012.9
20260831133054 46 32 0.0 0.0 0.00 0.01 0.00 96 1013.0
20260831131600 46 32 0.0 0.0 0.00 0.01 0.00 96 1012.8
20260831130051 46 32 0.0 0.0 0.00 0.01 0.00 96 1012.8
20260831124550 47 32 0.0 0.0 0.00 0.01 0.00 96 1012.9
20260831123049 47 32 0.0 0.0 0.00 0.01 0.00 96 1012.9
20260831121548 47 32 0.0 0.0 0.00 0.01 0.00 96 1013.1
20260831120046 47 32 0.0 0.0 0.00 0.01 0.00 96 1013.1
20260831114545 47 32 0.0 0.0 0.00 0.01 0.00 96 1013.1
20260831113047 48 32 0.0 0.0 0.00 0.01 0.00 96 1013.0
20260831111550 48 32 0.0 0.0 0.00 0.01 0.00 96 1013.1
20260831110041 48 32 0.0 0.0 0.00 0.01 0.00 95 1013.0
20260831104540 48 32 0.0 0.0 0.00 0.01 0.00 95 1013.1
20260831103039 48 32 0.0 0.0 0.00 0.01 0.00 95 1013.1
20260831101537 49 32 0.0 0.0 0.00 0.01 0.00 95 1013.1
20260831100047 49 32 0.0 0.0 0.00 0.01 0.00 95 1013.0
20260831094540 49 32 0.0 0.0 0.00 0.01 0.00 95 1013.2
20260831093047 49 32 0.0 0.0 0.00 0.01 0.00 95 1013.3
20260831091530 50 32 0.0 0.0 0.00 0.01 0.00 95 1013.3
20260831090028 50 32 0.0 0.0 0.00 0.01 0.00 95 1013.3
20260831084526 50 32 0.0 0.0 0.00 0.01 0.00 94 1013.4
20260831083025 51 32 0.0 0.0 0.00 0.01 0.00 94 1013.5
20260831081523 51 32 0.0 0.0 0.00 0.01 0.00 94 1013.6
20260831080032 51 32 0.0 0.0 0.00 0.01 0.00 93 1013.7
20260831074518 52 32 0.0 0.0 0.00 0.01 0.00 93 1013.7
20260831073016 52 32 0.0 0.0 0.00 0.01 0.00 93 1013.8
20260831071532 52 32 0.0 0.0 0.00 0.01 0.00 92 1013.9
20260831070012 53 32 0.0 0.0 0.00 0.01 0.00 92 1014.0
20260831064511 53 32 0.0 0.0 0.00 0.01 0.01 92 1014.1
20260831063014 54 32 0.0 0.0 0.00 0.01 0.01 91 1014.0
20260831061511 54 32 0.0 0.0 0.00 0.01 0.01 91 1014.1
20260831060012 55 32 0.0 0.0 0.00 0.01 0.01 90 1014.2
20260831054509 55 32 0.0 0.0 0.00 0.01 0.01 88 1014.3
20260831053009 56 32 0.0 0.0 0.00 0.01 0.01 88 1014.5
20260831051513 56 32 0.0 0.0 0.00 0.01 0.01 87 1014.5
20260831050008 57 32 0.0 0.0 0.00 0.01 0.01 86 1014.6
20260831044508 58 32 0.0 0.0 0.00 0.01 0.01 85 1014.6
20260831043007 59 32 0.0 0.0 0.00 0.01 0.01 84 1014.5
20260831041510 60 32 0.0 0.0 0.00 0.01 0.01 82 1014.4
20260831040006 61 32 0.0 0.0 0.00 0.01 0.01 80 1014.2
20260831034505 62 32 0.0 2.0 0.00 0.01 0.01 78 1014.1
20260831033013 63 32 0.0 2.0 0.00 0.01 0.01 77 1014.0
20260831031505 63 158 0.0 2.0 0.00 0.01 0.01 75 1013.9
20260831030004 65 171 0.0 0.0 0.00 0.01 0.01 72 1013.7
20260831024503 66 171 0.0 2.0 0.00 0.01 0.01 70 1013.7
20260831023008 68 162 0.0 2.0 0.00 0.01 0.01 64 1013.7
20260831021503 69 131 0.0 3.0 0.00 0.01 0.01 63 1013.6
20260831020002 70 109 0.0 6.0 0.00 0.01 0.01 59 1013.6
20260831014502 73 272 1.0 4.0 0.00 0.01 0.01 55 1013.6
20260831013002 74 342 1.0 6.0 0.00 0.01 0.01 55 1013.6
20260831011601 74 141 0.0 5.0 0.00 0.01 0.01 55 1013.6
20260831010117 74 250 2.0 8.0 0.00 0.01 0.01 53 1013.6
20260831004607 74 316 1.0 9.0 0.00 0.01 0.01 55 1013.7
20260831003158 75 265 2.0 7.0 0.00 0.01 0.01 55 1013.7
20260831001557 75 217 1.0 10.0 0.00 0.01 0.01 56 1013.9
20260831000105 75 277 3.0 10.0 0.01 0.01 0.01 55 1013.7
20260830234601 76 209 2.0 9.0 0.01 0.01 0.01 57 1013.7
20260830233054 76 236 3.0 11.0 0.01 0.01 0.01 57 1013.6
20260830231555 77 241 3.0 10.0 0.01 0.01 0.01 57 1013.5
20260830230053 77 256 2.0 9.0 0.00 0.00 0.00 56 1013.7
20260830224551 78 140 3.0 10.0 0.00 0.00 0.00 56 1013.8
20260830223049 78 334 1.0 15.0 0.00 0.00 0.00 58 1013.9
20260830221547 78 247 2.0 8.0 0.00 0.00 0.00 58 1014.0
20260830220045 78 80 3.0 11.0 0.00 0.00 0.00 56 1014.0
20260830214544 79 107 1.0 7.0 0.00 0.00 0.00 57 1014.2
20260830213055 79 236 2.0 7.0 0.00 0.00 0.00 57 1014.3
20260830211541 78 144 2.0 10.0 0.00 0.00 0.00 57 1014.4
20260830210041 78 200 2.0 10.0 0.00 0.00 0.00 58 1014.4
20260830204542 78 170 2.0 9.0 0.00 0.00 0.00 57 1014.3
20260830203040 79 220 2.0 9.0 0.00 0.00 0.00 56 1014.4